Created_Date(Asia/Kolkata),AQI,PM2.5,PM10,Temperature,Humidity
2023-08-20 05:00:00,95,57.0,83.0,34.0,74.0
2023-08-20 06:00:00,86,51.5,72.5,34.0,73.0
2023-08-20 07:00:00,64,38.5,56.5,34.0,71.5
2023-08-20 08:00:00,53,32.0,49.5,34.0,69.0
2023-08-20 09:00:00,152,41.0,178.5,35.0,65.5
2023-08-20 10:00:00,1505,458.5,1314.0,35.0,64.0
2023-08-20 11:00:00,2256,594.5,1914.5,35.5,62.5
2023-08-20 12:00:00,714,199.5,681.0,36.0,60.5
2023-08-20 13:00:00,70,28.5,70.0,36.0,58.5
2023-08-20 14:00:00,314,123.0,361.5,37.5,54.5
2023-08-20 15:00:00,489,132.0,501.0,41.0,46.0
2023-08-20 16:00:00,106,27.5,109.0,42.5,41.0
2023-08-20 17:00:00,64,22.0,64.5,42.0,41.5
2023-08-20 18:00:00,48,20.5,48.5,38.0,47.5
2023-08-20 19:00:00,45,25.0,45.0,36.0,53.0
2023-08-20 20:00:00,45,27.0,45.0,35.5,56.5
2023-08-20 21:00:00,52,31.0,46.5,35.0,59.0
2023-08-20 22:00:00,53,32.0,47.5,35.0,61.5
2023-08-20 23:00:00,58,35.0,54.0,34.0,63.5
2023-08-21 00:00:00,54,32.5,52.5,34.0,65.5
2023-08-21 01:00:00,45,27.0,45.0,34.0,66.5
2023-08-21 02:00:00,46,26.5,45.5,34.0,68.0
2023-08-21 03:00:00,54,32.5,52.0,34.0,69.0
2023-08-21 04:00:00,71,42.5,64.5,34.0,70.0
2023-08-21 05:00:00,60,36.0,51.0,34.0,71.5
2023-08-21 06:00:00,58,34.5,47.5,34.0,72.0
2023-08-21 07:00:00,61,36.5,51.5,34.0,70.5
2023-08-21 08:00:00,68,40.5,58.0,35.0,67.5
2023-08-21 09:00:00,169,55.0,203.5,35.0,66.0
2023-08-21 10:00:00,138,48.0,156.5,35.5,63.0
2023-08-21 11:00:00,173,63.0,209.5,36.0,60.0
2023-08-21 12:00:00,135,58.0,152.0,36.0,56.5
2023-08-21 13:00:00,102,47.5,103.0,37.0,53.5
2023-08-21 14:00:00,84,43.0,83.5,38.5,49.5
2023-08-21 15:00:00,103,41.5,104.0,40.5,45.0
2023-08-21 16:00:00,173,51.5,209.0,41.0,46.0
2023-08-21 17:00:00,188,63.5,231.5,40.0,47.5
2023-08-21 18:00:00,73,37.0,73.0,38.0,51.0
2023-08-21 19:00:00,109,50.0,113.5,36.0,58.0
2023-08-21 20:00:00,78,47.0,75.5,36.0,61.5
2023-08-21 21:00:00,74,44.5,65.0,35.0,64.0
2023-08-21 22:00:00,65,39.0,53.0,35.0,63.0
2023-08-21 23:00:00,72,43.5,62.0,35.0,65.0
2023-08-22 00:00:00,68,40.5,57.0,35.0,67.0
2023-08-22 01:00:00,74,44.5,60.5,35.0,68.0
2023-08-22 02:00:00,71,42.5,58.5,34.0,71.5
2023-08-22 03:00:00,71,42.5,58.0,34.0,71.0
2023-08-22 04:00:00,73,44.0,63.5,34.0,72.0
2023-08-22 05:00:00,78,46.5,68.5,34.0,73.0
2023-08-22 06:00:00,78,46.5,72.5,33.5,74.0
2023-08-22 07:00:00,64,36.5,64.5,32.0,75.5
2023-08-22 08:00:00,64,32.5,64.0,32.0,73.5
2023-08-22 09:00:00,70,33.0,70.5,33.0,72.5
2023-08-22 10:00:00,72,35.0,71.5,34.0,69.5
2023-08-22 11:00:00,66,35.0,66.5,35.0,66.5
2023-08-22 12:00:00,79,38.5,79.0,35.5,63.5
2023-08-22 13:00:00,71,35.5,71.0,36.0,61.0
2023-08-22 14:00:00,68,34.0,68.0,36.5,58.5
2023-08-22 15:00:00,99,35.5,99.0,36.0,59.0
2023-08-22 16:00:00,163,52.5,195.0,35.5,66.0
2023-08-22 17:00:00,118,45.0,127.0,35.0,67.5
2023-08-22 18:00:00,84,41.5,84.5,35.0,67.0
2023-08-22 19:00:00,156,53.0,184.5,34.5,68.0
2023-08-22 20:00:00,145,46.0,167.5,33.5,69.0
2023-08-22 21:00:00,36,11.5,36.5,33.0,68.5
2023-08-22 22:00:00,37,15.0,37.0,32.5,69.5
2023-08-22 23:00:00,35,14.0,35.0,32.5,70.0
2023-08-23 00:00:00,35,12.5,35.0,32.5,69.5
2023-08-23 01:00:00,32,11.5,32.5,32.0,69.5
2023-08-23 02:00:00,32,10.0,31.5,32.0,71.5
2023-08-23 03:00:00,31,10.0,31.0,32.0,71.0
2023-08-23 04:00:00,38,14.0,38.5,32.0,73.0
2023-08-23 05:00:00,42,15.5,42.5,32.0,73.5
2023-08-23 06:00:00,48,16.5,47.5,30.5,80.0
2023-08-23 07:00:00,58,20.5,57.5,31.0,77.0
2023-08-23 08:00:00,56,19.5,56.0,30.0,81.5
2023-08-23 09:00:00,58,22.5,58.5,30.0,86.5
2023-08-23 10:00:00,60,23.0,60.0,30.0,89.0
2023-08-23 11:00:00,109,25.5,114.0,31.5,81.5
2023-08-23 12:00:00,143,33.0,164.5,32.0,76.5
2023-08-23 13:00:00,67,23.0,67.0,31.5,77.5
2023-08-23 14:00:00,72,22.0,71.5,30.5,79.0
2023-08-23 15:00:00,77,28.5,77.0,32.0,75.5
2023-08-23 16:00:00,101,31.5,101.5,32.0,74.0
2023-08-23 17:00:00,87,27.5,87.0,32.0,73.0
2023-08-23 18:00:00,68,25.0,68.5,32.0,73.5
2023-08-23 19:00:00,57,23.5,57.0,32.0,75.0
2023-08-23 20:00:00,56,24.0,55.5,32.0,75.0
2023-08-23 21:00:00,52,27.0,52.5,32.0,75.0
2023-08-23 22:00:00,52,26.0,52.5,32.0,75.5
2023-08-23 23:00:00,51,25.0,51.0,32.0,75.0
2023-08-24 00:00:00,51,26.0,51.0,32.0,75.0
2023-08-24 01:00:00,53,26.5,53.0,32.0,76.0
2023-08-24 02:00:00,58,24.5,57.5,31.0,75.5
2023-08-24 03:00:00,62,22.5,61.5,29.5,77.0
2023-08-24 04:00:00,62,19.5,62.0,29.0,75.0
2023-08-24 05:00:00,60,18.0,59.5,28.0,76.0
2023-08-24 06:00:00,61,18.0,61.0,28.0,76.0
2023-08-24 07:00:00,66,21.0,66.5,28.0,74.5
2023-08-24 08:00:00,68,21.5,68.5,29.0,73.0
2023-08-24 09:00:00,75,22.0,75.0,29.5,72.0
2023-08-24 10:00:00,78,23.5,78.0,30.5,68.0
2023-08-24 11:00:00,86,26.5,86.0,32.0,64.5
2023-08-24 12:00:00,84,22.0,83.5,32.5,60.5
2023-08-24 13:00:00,88,21.5,87.5,33.0,59.5
2023-08-24 14:00:00,86,21.0,85.5,33.5,59.0
2023-08-24 15:00:00,87,21.5,87.0,35.0,55.5
2023-08-24 16:00:00,88,23.5,88.5,34.0,58.5
2023-08-24 17:00:00,88,23.5,87.5,33.0,59.5
2023-08-24 18:00:00,89,24.5,89.0,33.0,60.0
2023-08-24 19:00:00,88,25.5,88.5,32.0,62.5
2023-08-24 20:00:00,84,26.0,83.5,32.0,66.0
2023-08-24 21:00:00,80,26.0,79.5,31.0,68.0
2023-08-24 22:00:00,74,22.5,74.0,30.0,68.5
2023-08-24 23:00:00,72,20.5,72.5,30.0,67.0
2023-08-25 00:00:00,70,20.5,69.5,29.5,69.0
2023-08-25 01:00:00,68,20.0,68.5,29.0,70.0
2023-08-25 02:00:00,67,18.5,67.0,29.0,70.5
2023-08-25 03:00:00,70,20.0,69.5,29.0,71.0
2023-08-25 04:00:00,64,18.0,64.0,28.5,71.5
2023-08-25 05:00:00,65,18.0,65.0,28.0,72.5
2023-08-25 06:00:00,71,22.0,71.0,28.0,73.5
2023-08-25 07:00:00,78,25.0,78.5,29.0,73.5
2023-08-25 08:00:00,86,27.5,85.5,29.5,71.0
2023-08-25 09:00:00,95,30.5,95.0,30.5,67.0
2023-08-25 10:00:00,108,33.0,112.5,31.5,63.5
2023-08-25 11:00:00,100,29.0,100.0,32.5,60.0
2023-08-25 12:00:00,96,28.0,96.5,33.5,57.0
2023-08-25 13:00:00,102,31.0,102.5,34.5,55.0
2023-08-25 14:00:00,95,27.0,95.0,36.0,52.5
2023-08-25 15:00:00,178,46.5,217.0,36.5,50.0
2023-08-25 16:00:00,406,80.5,435.0,38.0,47.5
2023-08-25 17:00:00,106,27.0,109.0,37.5,47.5
2023-08-25 18:00:00,104,28.5,106.0,35.5,53.0
2023-08-25 19:00:00,102,30.5,103.5,33.5,57.5
2023-08-25 20:00:00,109,34.5,113.5,32.5,60.5
2023-08-25 21:00:00,101,33.0,101.0,32.0,61.5
2023-08-25 22:00:00,109,33.5,113.0,32.0,61.0
2023-08-25 23:00:00,123,34.0,134.5,31.0,61.5
2023-08-26 00:00:00,120,33.5,130.5,31.0,60.0
2023-08-26 01:00:00,119,33.5,128.0,30.0,61.0
2023-08-26 02:00:00,119,33.5,128.0,30.0,62.0
2023-08-26 03:00:00,115,32.0,122.5,30.0,62.5
2023-08-26 04:00:00,111,31.0,116.0,29.0,64.5
2023-08-26 05:00:00,109,31.0,114.0,29.0,65.0
2023-08-26 06:00:00,114,32.0,120.5,29.0,66.0
2023-08-26 07:00:00,113,32.5,120.0,29.5,64.5
2023-08-26 08:00:00,113,33.0,119.5,30.0,63.5
2023-08-26 09:00:00,124,35.5,135.5,31.0,62.5
2023-08-26 10:00:00,137,36.0,156.0,32.0,58.5
2023-08-26 11:00:00,131,35.0,147.0,32.0,57.0
2023-08-26 12:00:00,126,33.0,138.5,33.5,54.0
2023-08-26 13:00:00,119,31.0,128.0,34.5,51.5
2023-08-26 14:00:00,116,30.5,124.5,35.5,47.5
2023-08-26 15:00:00,119,31.5,128.5,36.0,48.0
2023-08-26 16:00:00,113,28.5,119.0,36.5,46.0
2023-08-26 17:00:00,114,30.0,121.0,36.5,47.5
2023-08-26 18:00:00,119,31.0,128.5,34.5,52.0
2023-08-26 19:00:00,129,34.5,144.0,34.0,54.5
2023-08-26 20:00:00,129,36.0,143.0,33.5,53.5
2023-08-26 21:00:00,130,36.5,145.5,33.0,54.0
2023-08-26 22:00:00,129,36.0,143.5,32.5,54.5
2023-08-26 23:00:00,137,36.0,155.0,32.0,52.5
2023-08-27 00:00:00,157,39.0,185.5,32.0,52.5
2023-08-27 01:00:00,158,39.0,187.5,31.0,54.5
2023-08-27 02:00:00,152,38.0,178.5,30.5,56.5
2023-08-27 03:00:00,156,37.5,184.5,30.0,57.5
2023-08-27 04:00:00,159,37.5,189.0,30.0,57.5
2023-08-27 05:00:00,175,41.0,213.0,29.5,60.5
2023-08-27 06:00:00,183,43.5,224.0,29.0,61.5
2023-08-27 07:00:00,168,41.5,202.5,29.5,62.0
2023-08-27 08:00:00,152,39.5,178.5,30.0,60.5
2023-08-27 09:00:00,138,36.5,157.5,31.0,58.5
2023-08-27 10:00:00,140,36.0,160.5,32.0,56.5
2023-08-27 11:00:00,141,36.5,162.0,33.0,54.5
2023-08-27 12:00:00,139,35.5,158.0,34.0,52.5
2023-08-27 13:00:00,135,35.0,152.0,35.0,50.0
2023-08-27 14:00:00,127,34.0,140.5,35.5,46.0
2023-08-27 15:00:00,125,32.0,138.0,37.0,41.5
2023-08-27 16:00:00,131,33.0,146.0,37.0,41.5
2023-08-27 17:00:00,132,33.5,148.5,37.0,43.5
2023-08-27 18:00:00,136,34.0,154.0,35.5,47.5
2023-08-27 19:00:00,121,34.5,132.0,33.5,52.5
2023-08-27 20:00:00,118,35.0,126.5,32.5,54.5
2023-08-27 21:00:00,94,28.0,93.5,31.5,53.0
2023-08-27 22:00:00,90,27.0,90.0,31.0,55.5
2023-08-27 23:00:00,83,23.5,83.0,31.0,55.5
2023-08-28 00:00:00,84,23.5,84.0,31.0,56.0
2023-08-28 01:00:00,90,24.5,90.5,30.0,57.5
2023-08-28 02:00:00,120,32.5,130.0,30.0,60.0
2023-08-28 03:00:00,130,34.5,144.5,30.0,61.5
2023-08-28 04:00:00,136,36.0,154.0,30.0,62.5
2023-08-28 05:00:00,129,35.0,143.5,29.0,63.5
2023-08-28 06:00:00,127,35.5,140.5,29.0,64.5
2023-08-28 07:00:00,130,36.5,145.0,29.0,65.5
2023-08-28 08:00:00,125,35.0,137.0,30.0,64.5
2023-08-28 09:00:00,125,34.5,137.5,30.5,63.0
2023-08-28 10:00:00,125,34.0,137.0,31.0,61.5
2023-08-28 11:00:00,128,35.0,141.5,32.5,59.0
2023-08-28 12:00:00,128,34.0,142.5,33.0,56.0
2023-08-28 13:00:00,131,34.5,146.0,34.5,53.0
2023-08-28 14:00:00,132,35.0,148.5,36.0,49.5
2023-08-28 15:00:00,133,35.0,150.0,37.5,45.0
2023-08-28 16:00:00,132,35.0,148.5,38.0,44.5
2023-08-28 17:00:00,130,34.5,144.5,37.5,46.5
2023-08-28 18:00:00,131,35.0,146.5,35.5,50.0
2023-08-28 19:00:00,142,38.0,162.5,35.0,54.0
2023-08-28 20:00:00,155,42.0,182.5,34.0,56.0
2023-08-28 21:00:00,126,41.5,138.5,34.0,56.5
2023-08-28 22:00:00,114,42.0,121.5,34.0,60.0
2023-08-28 23:00:00,114,43.0,121.0,34.0,61.5
2023-08-29 00:00:00,120,45.0,129.5,33.5,62.5
2023-08-29 01:00:00,130,46.5,144.5,33.0,63.5
2023-08-29 02:00:00,132,42.0,147.5,32.0,63.5
2023-08-29 03:00:00,98,28.5,98.5,31.0,57.0
2023-08-29 04:00:00,98,29.0,97.5,30.5,60.0
2023-08-29 05:00:00,95,27.0,95.0,30.0,62.5
2023-08-29 06:00:00,94,27.0,93.5,29.0,64.0
2023-08-29 07:00:00,97,29.5,97.0,29.0,65.5
2023-08-29 08:00:00,107,32.5,110.5,30.0,63.0
2023-08-29 09:00:00,105,31.0,107.0,31.0,61.5
2023-08-29 10:00:00,106,31.5,109.0,32.0,59.5
2023-08-29 11:00:00,107,32.5,110.5,33.0,57.0
2023-08-29 12:00:00,109,32.5,114.0,34.5,54.5
2023-08-29 13:00:00,109,32.0,113.0,35.0,51.0
2023-08-29 14:00:00,109,32.5,114.0,36.5,46.5
2023-08-29 15:00:00,110,31.5,114.5,38.0,41.5
2023-08-29 16:00:00,106,28.5,108.5,39.0,37.5
2023-08-29 17:00:00,103,26.5,104.5,37.5,40.5
2023-08-29 18:00:00,112,30.5,117.5,36.0,45.5
2023-08-29 19:00:00,121,34.5,132.0,35.0,50.5
2023-08-29 20:00:00,132,38.0,148.5,34.5,52.5
2023-08-29 21:00:00,126,37.0,139.0,34.0,53.5
2023-08-29 22:00:00,126,37.0,139.0,34.0,55.5
2023-08-29 23:00:00,126,37.5,139.5,34.0,58.0
2023-08-30 00:00:00,119,36.5,129.0,33.5,58.0
2023-08-30 01:00:00,119,36.0,129.0,33.0,60.0
2023-08-30 02:00:00,120,37.0,130.0,32.5,62.5
2023-08-30 03:00:00,133,47.0,149.5,32.0,65.0
2023-08-30 04:00:00,126,45.0,139.0,32.0,69.5
2023-08-30 05:00:00,126,44.0,138.5,31.0,72.0
2023-08-30 06:00:00,117,40.5,125.0,31.0,72.5
2023-08-30 07:00:00,112,35.5,117.5,31.0,69.0
2023-08-30 08:00:00,122,38.0,132.5,31.0,65.5
2023-08-30 09:00:00,130,41.0,144.5,32.0,64.5
2023-08-30 10:00:00,124,38.0,135.5,33.0,62.0
2023-08-30 11:00:00,118,33.5,126.5,34.0,55.0
2023-08-30 12:00:00,112,30.0,118.5,35.0,49.5
2023-08-30 13:00:00,102,28.0,103.0,35.0,46.5
2023-08-30 14:00:00,92,28.0,92.5,36.5,41.5
2023-08-30 15:00:00,90,26.0,90.0,38.5,38.0
2023-08-30 16:00:00,93,26.5,93.0,39.0,39.0
2023-08-30 17:00:00,90,24.5,89.5,38.0,39.0
2023-08-30 18:00:00,92,28.5,92.0,36.0,45.0
2023-08-30 19:00:00,98,31.5,98.0,35.0,49.5
2023-08-30 20:00:00,109,35.0,114.0,34.5,50.5
2023-08-30 21:00:00,109,35.0,113.5,34.0,52.0
2023-08-30 22:00:00,110,34.5,115.0,34.0,52.0
2023-08-30 23:00:00,109,34.5,113.5,33.5,52.5
2023-08-31 00:00:00,116,35.0,123.5,33.0,54.5
2023-08-31 01:00:00,113,33.5,119.5,32.5,55.5
2023-08-31 02:00:00,105,35.0,108.0,32.5,57.0
2023-08-31 03:00:00,103,36.5,105.0,31.5,61.5
2023-08-31 04:00:00,107,39.0,111.0,32.0,63.0
2023-08-31 05:00:00,102,38.0,103.0,32.0,63.0
2023-08-31 06:00:00,116,42.5,123.5,31.0,65.0
2023-08-31 07:00:00,128,48.5,142.5,32.0,64.5
2023-08-31 08:00:00,124,41.5,136.5,32.0,62.5
2023-08-31 09:00:00,117,35.5,125.5,33.0,58.0
2023-08-31 10:00:00,115,36.0,123.0,33.5,57.5
2023-08-31 11:00:00,118,36.0,127.5,35.0,52.0
2023-08-31 12:00:00,116,36.0,124.0,36.0,50.5
2023-08-31 13:00:00,112,34.0,117.5,36.0,48.5
2023-08-31 14:00:00,110,33.0,115.0,37.5,45.0
2023-08-31 15:00:00,108,31.0,111.5,37.5,42.5
2023-08-31 16:00:00,104,28.0,105.5,38.5,41.0
2023-08-31 17:00:00,98,25.0,98.5,38.5,40.0
2023-08-31 18:00:00,100,25.0,100.5,36.5,45.0
2023-08-31 19:00:00,112,31.5,118.0,35.0,51.0
2023-08-31 20:00:00,111,33.5,117.0,34.5,54.5
2023-08-31 21:00:00,113,34.0,119.0,34.0,56.5
2023-08-31 22:00:00,114,34.5,121.0,34.0,58.0
2023-08-31 23:00:00,112,33.0,118.0,34.0,58.5
2023-09-01 00:00:00,111,32.0,116.0,33.5,59.5
2023-09-01 01:00:00,109,33.0,114.0,33.0,61.0
2023-09-01 02:00:00,106,33.0,109.5,33.0,62.0
2023-09-01 03:00:00,114,38.0,121.0,32.5,65.0
2023-09-01 04:00:00,109,37.5,113.5,32.0,68.0
2023-09-01 05:00:00,106,36.0,109.5,31.0,69.0
2023-09-01 06:00:00,109,35.5,113.5,31.0,69.0
2023-09-01 07:00:00,112,36.0,118.5,31.5,68.0
2023-09-01 08:00:00,116,37.5,123.5,32.0,63.5
2023-09-01 09:00:00,111,35.5,117.0,33.0,59.5
2023-09-01 10:00:00,108,32.0,112.5,34.5,55.0
2023-09-01 11:00:00,105,30.0,107.5,35.0,48.5
2023-09-01 12:00:00,92,26.0,92.5,36.0,45.5
2023-09-01 13:00:00,90,24.5,89.5,36.0,42.5
2023-09-01 14:00:00,85,22.0,85.0,37.5,38.0
2023-09-01 15:00:00,88,21.5,87.5,39.0,34.5
2023-09-01 16:00:00,88,21.5,87.5,40.0,34.0
2023-09-01 17:00:00,90,21.0,90.0,39.5,35.0
2023-09-01 18:00:00,98,25.0,97.5,36.5,39.5
2023-09-01 19:00:00,112,31.5,118.0,36.0,45.0
2023-09-01 20:00:00,111,34.5,116.0,35.0,50.5
2023-09-01 21:00:00,111,35.5,117.0,35.0,51.0
2023-09-01 22:00:00,113,34.5,119.5,34.5,53.0
2023-09-01 23:00:00,113,36.0,119.5,34.0,54.5
2023-09-02 00:00:00,107,33.5,110.5,34.0,55.5
2023-09-02 01:00:00,104,32.5,105.5,33.5,57.0
2023-09-02 02:00:00,110,36.5,115.0,32.5,60.5
2023-09-02 03:00:00,107,36.5,110.5,32.0,61.5
2023-09-02 04:00:00,105,35.5,107.5,32.0,63.5
2023-09-02 05:00:00,105,35.0,107.5,32.0,64.5
2023-09-02 06:00:00,113,37.0,119.0,31.0,63.5
2023-09-02 07:00:00,116,37.5,124.0,31.5,62.5
2023-09-02 08:00:00,107,34.5,111.0,32.0,56.5
2023-09-02 09:00:00,102,30.5,103.0,33.0,49.0
2023-09-02 10:00:00,107,31.0,111.0,34.0,45.0
2023-09-02 11:00:00,100,29.5,100.0,35.0,43.5
2023-09-02 12:00:00,100,26.5,100.5,35.5,42.5
2023-09-02 13:00:00,96,25.0,95.5,36.0,41.5
2023-09-02 14:00:00,94,25.0,93.5,36.5,38.5
2023-09-02 15:00:00,96,24.0,96.5,39.0,34.0
2023-09-02 16:00:00,94,23.0,94.5,39.0,34.5
2023-09-02 17:00:00,100,24.5,100.5,38.5,37.0
2023-09-02 18:00:00,105,26.0,107.0,36.5,42.0
2023-09-02 19:00:00,109,32.0,113.5,35.0,47.5
2023-09-02 20:00:00,106,32.5,108.5,34.0,50.0
2023-09-02 21:00:00,111,33.0,117.0,34.0,52.5
2023-09-02 22:00:00,112,34.5,118.0,33.5,54.0
2023-09-02 23:00:00,112,35.0,118.5,33.0,56.5
2023-09-03 00:00:00,110,33.0,115.5,33.0,56.5
2023-09-03 01:00:00,112,33.5,118.5,33.0,58.5
2023-09-03 02:00:00,111,33.5,116.5,32.0,58.5
2023-09-03 03:00:00,116,39.0,124.0,32.0,60.5
2023-09-03 04:00:00,110,35.5,115.0,31.5,62.5
2023-09-03 05:00:00,106,35.5,109.5,31.0,67.0
2023-09-03 06:00:00,106,36.0,109.5,30.5,68.5
2023-09-03 07:00:00,105,35.5,107.5,31.0,66.0
2023-09-03 08:00:00,103,32.0,104.5,31.5,54.0
2023-09-03 09:00:00,94,27.5,93.5,32.0,47.0
2023-09-03 10:00:00,102,26.0,103.5,32.5,48.0
2023-09-03 11:00:00,92,24.0,92.0,33.5,46.5
2023-09-03 12:00:00,96,24.5,96.5,34.5,43.5
2023-09-03 13:00:00,92,22.5,92.5,36.0,40.0
2023-09-03 14:00:00,94,21.0,94.5,36.5,37.0
2023-09-03 15:00:00,95,21.0,95.0,39.0,34.0
2023-09-03 16:00:00,97,21.0,97.0,39.0,31.5
2023-09-03 17:00:00,100,23.0,99.5,38.5,32.0
2023-09-03 18:00:00,107,27.5,110.0,35.5,43.0
2023-09-03 19:00:00,114,33.0,120.5,35.0,48.0
2023-09-03 20:00:00,114,35.0,121.0,34.5,50.0
2023-09-03 21:00:00,111,35.0,116.5,34.0,53.5
2023-09-03 22:00:00,111,35.0,116.5,34.0,55.0
2023-09-03 23:00:00,111,35.0,116.0,34.0,55.5
2023-09-04 00:00:00,108,34.5,111.5,33.0,56.5
2023-09-04 01:00:00,107,35.0,111.0,32.5,60.0
2023-09-04 02:00:00,106,35.5,109.5,32.0,62.5
2023-09-04 03:00:00,106,35.0,108.5,32.0,63.5
2023-09-04 04:00:00,108,36.5,111.5,31.0,65.0
2023-09-04 05:00:00,111,39.0,116.5,31.0,66.0
2023-09-04 06:00:00,116,40.5,123.5,30.0,68.0
2023-09-04 07:00:00,115,37.5,123.0,31.0,65.0
2023-09-04 08:00:00,113,36.0,119.5,31.5,56.5
2023-09-04 09:00:00,86,26.0,86.5,32.0,49.5
2023-09-04 10:00:00,86,23.5,86.5,33.0,46.5
2023-09-04 11:00:00,82,22.0,82.5,34.5,43.5
2023-09-04 12:00:00,76,18.5,76.5,35.5,39.5
2023-09-04 13:00:00,75,18.0,75.0,36.0,39.0
2023-09-04 14:00:00,71,16.0,71.0,37.0,36.0
2023-09-04 15:00:00,75,16.0,75.0,39.0,31.5
2023-09-04 16:00:00,76,16.5,76.5,38.5,32.0
2023-09-04 17:00:00,83,20.5,83.0,37.5,38.0
2023-09-04 18:00:00,90,24.0,90.0,35.5,46.5
2023-09-04 19:00:00,94,26.0,93.5,34.5,49.0
2023-09-04 20:00:00,94,29.5,94.5,34.0,50.0
2023-09-04 21:00:00,89,28.0,89.0,34.0,50.5
2023-09-04 22:00:00,78,28.0,78.5,34.0,51.5
2023-09-04 23:00:00,80,29.0,79.5,33.0,52.5
2023-09-05 00:00:00,76,31.0,76.0,34.0,53.5
2023-09-05 01:00:00,85,34.5,85.0,33.0,56.5
2023-09-05 02:00:00,93,40.5,93.0,33.5,59.0
2023-09-05 03:00:00,91,42.5,91.0,33.0,61.0
2023-09-05 04:00:00,69,38.5,69.0,33.0,57.5
2023-09-05 05:00:00,72,41.5,71.5,33.0,57.0
2023-09-05 06:00:00,70,41.0,69.5,33.0,57.0
2023-09-05 07:00:00,58,34.0,58.0,33.5,56.5
2023-09-05 08:00:00,64,33.5,63.5,34.0,55.0
2023-09-05 09:00:00,112,48.0,118.5,34.0,55.0
2023-09-05 10:00:00,145,52.0,167.5,34.5,54.0
2023-09-05 11:00:00,113,42.0,119.0,35.0,52.5
2023-09-05 12:00:00,133,43.0,149.0,36.0,51.5
2023-09-05 13:00:00,76,32.5,76.5,36.0,49.0
2023-09-05 14:00:00,125,38.5,137.0,37.0,46.5
2023-09-05 15:00:00,114,36.5,120.5,39.5,41.5
2023-09-05 16:00:00,139,35.0,159.0,39.0,40.5
2023-09-05 17:00:00,114,29.5,121.5,38.0,41.5
2023-09-05 18:00:00,116,32.5,124.5,36.5,45.0
2023-09-05 19:00:00,86,29.0,85.5,36.0,48.5
2023-09-05 20:00:00,108,44.0,112.0,35.0,53.5
2023-09-05 21:00:00,101,52.0,101.0,35.0,59.0
2023-09-05 22:00:00,76,32.0,75.5,34.0,58.0
2023-09-05 23:00:00,80,28.5,80.0,33.5,59.0
2023-09-06 00:00:00,103,35.5,104.5,33.0,61.0
2023-09-06 01:00:00,77,38.0,77.0,33.5,61.0
2023-09-06 02:00:00,81,44.5,81.0,34.0,62.0
2023-09-06 03:00:00,93,51.5,93.0,33.0,64.0
2023-09-06 04:00:00,92,53.5,92.5,34.0,64.0
2023-09-06 05:00:00,103,53.0,105.0,33.5,64.0
2023-09-06 06:00:00,74,26.0,73.5,32.0,62.5
2023-09-06 07:00:00,46,13.5,46.0,32.0,61.5
2023-09-06 08:00:00,66,24.5,66.5,32.0,59.0
2023-09-06 09:00:00,159,41.0,188.5,33.0,59.5
2023-09-06 10:00:00,109,32.5,114.0,34.0,58.5
2023-09-06 11:00:00,145,38.0,167.5,35.5,55.5
2023-09-06 12:00:00,90,20.0,90.5,36.0,47.5
2023-09-06 13:00:00,82,16.0,81.5,37.0,45.0
2023-09-06 14:00:00,217,44.5,267.0,38.0,44.0
2023-09-06 15:00:00,103,19.5,104.5,40.0,34.0
2023-09-06 16:00:00,136,25.0,153.5,40.0,33.0
2023-09-06 17:00:00,103,20.0,104.0,37.5,39.0
2023-09-06 18:00:00,127,28.5,140.5,35.5,46.5
2023-09-06 19:00:00,104,24.0,105.5,34.5,48.0
2023-09-06 20:00:00,65,21.0,65.0,34.0,50.0
2023-09-06 21:00:00,44,17.0,44.5,34.0,50.5
2023-09-06 22:00:00,46,17.5,46.0,34.0,50.0
2023-09-06 23:00:00,52,18.5,51.5,32.5,52.5
2023-09-07 00:00:00,54,21.5,54.0,32.0,58.0
2023-09-07 01:00:00,53,23.5,53.0,31.5,60.0
2023-09-07 02:00:00,44,18.0,43.5,32.0,59.0
2023-09-07 03:00:00,50,21.5,49.5,32.0,60.0
2023-09-07 04:00:00,54,20.5,54.5,32.0,60.5
2023-09-07 05:00:00,46,16.5,46.5,31.5,61.0
2023-09-07 06:00:00,58,21.0,58.5,31.0,61.5
2023-09-07 07:00:00,74,30.0,74.0,32.0,61.5
2023-09-07 08:00:00,56,27.0,55.5,32.5,60.5
2023-09-07 09:00:00,88,38.0,88.5,33.0,59.0
2023-09-07 10:00:00,118,47.0,127.5,34.5,57.5
2023-09-07 11:00:00,120,48.0,130.0,36.0,53.5
2023-09-07 12:00:00,102,42.0,102.5,36.0,50.5
2023-09-07 13:00:00,63,34.0,63.0,36.5,46.0
2023-09-07 14:00:00,218,63.0,268.0,38.0,44.0
2023-09-07 15:00:00,245,70.0,295.0,38.5,43.0
2023-09-07 16:00:00,112,41.5,118.5,34.5,54.0
2023-09-07 17:00:00,52,28.5,51.5,31.0,65.0
2023-09-07 18:00:00,67,32.0,67.0,32.0,58.0
2023-09-07 19:00:00,84,39.0,84.0,33.0,57.5
2023-09-07 20:00:00,75,41.0,75.0,34.0,58.0
2023-09-07 21:00:00,85,47.5,85.0,34.0,58.0
2023-09-07 22:00:00,84,48.0,83.5,34.0,58.5
2023-09-07 23:00:00,88,50.5,87.5,34.0,58.0
2023-09-08 00:00:00,100,53.5,100.5,33.0,59.0
2023-09-08 01:00:00,92,52.5,92.0,33.0,59.5
2023-09-08 02:00:00,56,33.5,55.5,32.5,59.5
2023-09-08 03:00:00,34,16.0,34.0,32.0,58.5
2023-09-08 04:00:00,30,12.0,30.5,32.0,57.0
2023-09-08 05:00:00,32,12.0,32.5,32.0,57.5
2023-09-08 06:00:00,33,12.0,33.0,32.0,58.0
2023-09-08 07:00:00,42,19.5,42.5,32.0,58.5
2023-09-08 08:00:00,74,33.0,73.5,33.0,58.5
2023-09-08 09:00:00,166,41.5,198.5,33.5,56.5
2023-09-08 10:00:00,94,25.5,93.5,34.0,52.0
2023-09-08 11:00:00,76,22.5,75.5,35.0,49.0
2023-09-08 12:00:00,72,23.0,71.5,35.0,48.5
2023-09-08 13:00:00,44,16.5,44.5,36.0,47.5
2023-09-08 14:00:00,68,20.0,68.5,36.0,47.0
2023-09-08 15:00:00,152,37.0,178.5,37.5,45.0
2023-09-08 16:00:00,140,35.5,160.5,36.5,48.0
2023-09-08 17:00:00,63,19.0,63.0,35.5,50.5
2023-09-08 18:00:00,51,13.5,51.0,33.0,59.0
2023-09-08 19:00:00,42,14.0,42.0,33.0,59.5
2023-09-08 20:00:00,39,17.5,39.0,32.5,59.0
2023-09-08 21:00:00,33,14.5,33.0,32.0,59.0
2023-09-08 22:00:00,34,15.0,34.0,33.0,59.0
2023-09-08 23:00:00,34,13.5,34.0,32.5,59.5
2023-09-09 00:00:00,32,12.0,31.5,32.0,60.0
2023-09-09 01:00:00,31,13.0,31.0,33.0,60.0
2023-09-09 02:00:00,37,15.0,37.0,32.0,60.5
2023-09-09 03:00:00,34,10.5,34.0,31.5,64.5
2023-09-09 04:00:00,24,7.0,24.5,31.0,66.0
2023-09-09 05:00:00,28,9.0,27.5,31.0,66.5
2023-09-09 06:00:00,26,9.0,25.5,31.5,67.0
2023-09-09 07:00:00,32,11.5,32.0,32.0,66.0
2023-09-09 08:00:00,181,48.0,221.5,32.0,65.0
2023-09-09 09:00:00,699,124.0,669.5,32.5,64.0
2023-09-09 10:00:00,100,27.5,100.0,33.0,62.5
2023-09-09 11:00:00,50,19.0,49.5,33.5,61.0
2023-09-09 12:00:00,69,21.0,69.0,34.0,58.5
2023-09-09 13:00:00,38,15.0,38.5,34.0,58.0
2023-09-09 14:00:00,125,23.5,138.0,33.5,59.5
2023-09-09 15:00:00,108,29.0,112.5,33.0,62.5
2023-09-09 16:00:00,127,27.5,140.5,32.0,63.0
2023-09-09 17:00:00,56,14.0,55.5,32.0,62.5
2023-09-09 18:00:00,52,10.5,52.0,32.0,61.5
2023-09-09 19:00:00,66,19.5,65.5,32.0,61.0
2023-09-09 20:00:00,36,17.0,35.5,31.5,61.0
2023-09-09 21:00:00,24,6.5,23.5,31.0,63.0
2023-09-09 22:00:00,26,9.0,26.5,31.0,67.0
2023-09-09 23:00:00,24,8.0,24.0,31.0,69.0
2023-09-10 00:00:00,20,6.0,20.0,29.5,74.0
2023-09-10 01:00:00,24,8.0,24.5,29.0,77.5
2023-09-10 02:00:00,29,10.0,29.0,30.0,75.0
2023-09-10 03:00:00,29,10.5,29.0,30.0,74.0
2023-09-10 04:00:00,28,11.0,28.0,29.5,75.5
2023-09-10 05:00:00,20,5.5,19.5,30.0,73.0
2023-09-10 06:00:00,19,6.0,19.0,30.0,72.0
2023-09-10 07:00:00,30,14.0,30.5,30.0,72.0
2023-09-10 08:00:00,35,18.5,35.0,31.0,72.0
2023-09-10 09:00:00,28,11.5,28.0,31.0,72.5
2023-09-10 10:00:00,24,9.0,24.0,31.0,70.5
2023-09-10 11:00:00,25,7.5,25.0,32.0,68.5
2023-09-10 12:00:00,30,11.0,30.5,32.0,66.0
2023-09-10 13:00:00,27,9.0,27.0,32.0,65.0
2023-09-10 14:00:00,29,9.0,29.0,32.0,66.5
2023-09-10 15:00:00,30,11.5,30.0,32.0,66.0
2023-09-10 16:00:00,19,6.0,19.0,32.0,64.5
2023-09-10 17:00:00,18,5.5,18.5,31.0,66.5
2023-09-10 18:00:00,24,6.5,23.5,31.0,67.0
2023-09-10 19:00:00,24,8.0,24.0,30.0,68.5
2023-09-10 20:00:00,30,13.0,30.5,30.0,70.5
2023-09-10 21:00:00,30,12.0,30.5,30.0,71.0
2023-09-10 22:00:00,28,11.0,28.0,30.0,71.5
2023-09-10 23:00:00,31,14.5,31.0,30.0,72.0
2023-09-11 00:00:00,32,15.5,32.5,30.0,72.0
2023-09-11 01:00:00,38,20.0,37.5,30.0,72.0
2023-09-11 02:00:00,43,26.0,41.5,30.0,71.5
2023-09-11 03:00:00,42,25.5,42.5,30.0,71.0
2023-09-11 04:00:00,42,23.5,42.0,30.0,70.5
2023-09-11 05:00:00,38,20.0,38.5,30.0,70.0
2023-09-11 06:00:00,51,30.5,50.5,30.0,70.0
2023-09-11 07:00:00,60,36.0,54.0,30.0,70.0
2023-09-11 08:00:00,64,38.5,58.0,31.0,68.5